Weather History for Ostrava, Czech Republic

Change the Weather History Date:

Saturday, July 20, 2013

  Actual Average (EPKT) Record (EPKT)
Temperature  
Mean Temperature 66 °F -  
Max Temperature 74 °F 74 °F 91 °F (2006)
Min Temperature 57 °F 53 °F 50 °F (2003)
Growing Degree Days 16 (Base 50)    
Moisture  
Dew Point 56 °F    
Average Humidity 68    
Maximum Humidity 94    
Minimum Humidity 44    
Precipitation  
Precipitation 0.00 in 0.12 in - ()
Sea Level Pressure  
Sea Level Pressure 30.08 in    
Wind  
Wind Speed 5 mph ()    
Max Wind Speed 13 mph    
Max Gust Speed -    
Visibility 6.9 miles    
Events      
Averages and records for this station are not official NWS values.
T = Trace of Precipitation, MM = Missing Value Source: Averaged Metar Reports

Daily Weather History Graph

Daily Weather History Graph

Search for Another Location

Airport:

Trip Planner

Search our weather history database for the weather conditions in past years. The results will help you decide how hot, cold, wet, or windy it might be!

Date:

Astronomy

Jul. 20, 2013 Rise Set
Actual Time 5:02 AM CEST 8:44 PM CEST
Civil Twilight 4:21 AM CEST 9:25 PM CEST
Nautical Twilight 3:25 AM CEST 10:20 PM CEST
Astronomical Twilight 2:02 AM CEST 11:41 PM CEST
Moon 6:29 PM CEST (7/20) 2:24 AM CEST (7/20)
Length of Visible Light 17h 03m
Length of Day
15h 42m
Waxing Gibbous, 92% of the Moon is Illuminated
Jul 20
Waxing Gibbous
Jul 22
Full
Jul 29
Last Quarter
Aug 6
New
Aug 14
First Quarter

Hourly Weather History & Observations

Time (CEST) Temp. Dew Point Humidity Pressure Visibility Wind Dir Wind Speed Gust Speed Precip Events Conditions
12:00 AM 68.0 °F 57.2 °F 68% 30.04 in - Variable 2.3 mph - N/A   Clear
12:30 AM 68.0 °F 57.2 °F 68% 30.04 in - Variable 2.3 mph - N/A   Clear
1:00 AM 68.0 °F 57.2 °F 68% 30.06 in - Calm Calm - N/A   Clear
1:30 AM 66.2 °F 57.2 °F 73% 30.04 in - Calm Calm - N/A   Clear
2:00 AM 65 °F 58 °F 70% 30.04 in 12 mi South 2.2 mph - -   Clear
2:00 AM 64.4 °F 57.2 °F 77% 30.04 in - South 2.3 mph - N/A   Clear
2:30 AM 64.4 °F 59.0 °F 83% 30.04 in - Variable 2.3 mph - N/A   Clear
3:00 AM 60.8 °F 57.2 °F 88% 30.04 in - SSW 1.2 mph - N/A   Clear
3:30 AM 62.6 °F 57.2 °F 82% 30.04 in - SSW 3.5 mph - N/A   Clear
4:00 AM 60.8 °F 57.2 °F 88% 30.04 in 6.2 mi SSW 2.3 mph - N/A   Partly Cloudy
4:30 AM 59.0 °F 57.2 °F 94% 30.04 in 6.2 mi SSW 3.5 mph - N/A   Scattered Clouds
5:00 AM 59.0 °F 57.2 °F 94% 30.04 in - SSW 4.6 mph - N/A   Clear
5:30 AM 59.0 °F 55.4 °F 88% 30.04 in 6.2 mi Variable 2.3 mph - N/A   Partly Cloudy
6:00 AM 62.6 °F 57.2 °F 82% 30.04 in 6.2 mi Variable 2.3 mph - N/A   Scattered Clouds
6:30 AM 62.6 °F 57.2 °F 82% 30.06 in 6.2 mi Calm Calm - N/A   Scattered Clouds
7:00 AM 62.6 °F 59.0 °F 88% 30.06 in 6.2 mi Variable 2.3 mph - N/A   Partly Cloudy
7:30 AM 64.4 °F 59.0 °F 83% 30.06 in 6.2 mi North 6.9 mph - N/A   Mostly Cloudy
8:00 AM 64 °F 59 °F 78% 30.07 in 11 mi North 11.2 mph - -   Partly Cloudy
8:00 AM 64.4 °F 59.0 °F 83% 30.06 in 6.2 mi North 10.4 mph - N/A   Scattered Clouds
8:30 AM 66.2 °F 59.0 °F 78% 30.09 in 6.2 mi North 11.5 mph - N/A   Scattered Clouds
9:00 AM 66.2 °F 59.0 °F 78% 30.09 in 6.2 mi NNE 10.4 mph - N/A   Mostly Cloudy
9:30 AM 68.0 °F 59.0 °F 73% 30.09 in 6.2 mi NNE 10.4 mph - N/A   Scattered Clouds
10:00 AM 68.0 °F 59.0 °F 73% 30.09 in 6.2 mi NNE 10.4 mph - N/A   Mostly Cloudy
10:30 AM 69.8 °F 59.0 °F 68% 30.09 in 6.2 mi North 10.4 mph - N/A   Scattered Clouds
11:00 AM 69.8 °F 59.0 °F 68% 30.09 in 6.2 mi North 10.4 mph - N/A   Partly Cloudy
11:30 AM 71.6 °F 59.0 °F 64% 30.09 in 6.2 mi North 12.7 mph - N/A   Partly Cloudy
12:00 PM 69.8 °F 57.2 °F 64% 30.12 in 6.2 mi North 10.4 mph - N/A   Partly Cloudy
12:30 PM 69.8 °F 57.2 °F 64% 30.09 in 6.2 mi North 6.9 mph - N/A   Partly Cloudy
1:00 PM 71.6 °F 55.4 °F 57% 30.09 in 6.2 mi NNE 10.4 mph - N/A   Scattered Clouds
1:30 PM 69.8 °F 57.2 °F 64% 30.12 in 6.2 mi North 11.5 mph - N/A   Scattered Clouds
2:00 PM 71 °F 55 °F 47% 30.09 in 17 mi North 8.9 mph - -   Scattered Clouds
2:00 PM 71.6 °F 55.4 °F 57% 30.09 in 6.2 mi North 9.2 mph - N/A   Partly Cloudy
2:30 PM 71.6 °F 55.4 °F 57% 30.09 in 6.2 mi North 8.1 mph - N/A   Partly Cloudy
3:00 PM 71.6 °F 57.2 °F 60% 30.09 in 6.2 mi North 6.9 mph - N/A   Partly Cloudy
3:30 PM 73.4 °F 55.4 °F 53% 30.09 in 6.2 mi NNE 10.4 mph - N/A   Partly Cloudy
4:00 PM 71.6 °F 55.4 °F 57% 30.09 in 6.2 mi NNE 11.5 mph - N/A   Scattered Clouds
4:30 PM 73.4 °F 55.4 °F 53% 30.09 in 6.2 mi NNE 8.1 mph - N/A   Scattered Clouds
5:00 PM 69.8 °F 55.4 °F 60% 30.09 in 6.2 mi NE 8.1 mph - N/A   Partly Cloudy
5:30 PM 73.4 °F 53.6 °F 50% 30.09 in - NNE 9.2 mph - N/A   Clear
6:00 PM 73.4 °F 50.0 °F 44% 30.09 in - North 11.5 mph - N/A   Clear
6:30 PM 71.6 °F 50.0 °F 46% 30.09 in - NNE 10.4 mph - N/A   Clear
7:00 PM 71.6 °F 50.0 °F 46% 30.09 in - NNE 10.4 mph - N/A   Clear
7:30 PM 69.8 °F 51.8 °F 53% 30.09 in - NNE 8.1 mph - N/A   Clear
8:00 PM 67 °F 51 °F 46% 30.08 in 31 mi NNE 8.9 mph - -   Scattered Clouds
8:00 PM 68.0 °F 51.8 °F 56% 30.09 in - NNE 8.1 mph - N/A   Clear
8:30 PM 64.4 °F 51.8 °F 64% 30.09 in - NNE 6.9 mph - N/A   Clear
9:00 PM 64.4 °F 51.8 °F 64% 30.09 in - NE 5.8 mph - N/A   Clear
9:30 PM 64.4 °F 50.0 °F 59% 30.09 in - NNE 3.5 mph - N/A   Clear
10:00 PM 64.4 °F 50.0 °F 59% 30.12 in - North 3.5 mph - N/A   Clear
10:30 PM 62.6 °F 50.0 °F 63% 30.12 in - NNE 3.5 mph - N/A   Clear
11:00 PM 62.6 °F 51.8 °F 68% 30.12 in - NE 2.3 mph - N/A   Clear
11:30 PM 60.8 °F 50.0 °F 68% 30.12 in - NE 3.5 mph - N/A   Clear